EW4939 Weather Reports


Display with metric or nautical units.
time (UTC)temp
F
wind
direction
speed
MPH
gust
MPH
rain 1hr
in
rain 24hr
in
rain mn
in
humidity
%
barometer
mb
20260831234134 88 175 0.0 1.0 0.00 0.00 0.00 65 1016.8
20260831233629 88 175 0.0 2.0 0.00 0.00 0.00 64 1016.7
20260831233125 88 163 1.0 2.0 0.00 0.00 0.00 65 1016.6
20260831232620 89 201 1.0 1.0 0.00 0.00 0.00 64 1016.6
20260831232116 89 193 0.0 2.0 0.00 0.00 0.00 64 1016.7
20260831231612 89 183 1.0 4.0 0.00 0.00 0.00 63 1016.5
20260831231108 89 171 1.0 2.0 0.00 0.00 0.00 62 1016.3
20260831230603 89 184 3.0 3.0 0.00 0.00 0.00 62 1016.4
20260831225558 89 170 3.0 4.0 0.00 0.00 0.00 61 1016.7
20260831225058 90 174 3.0 3.0 0.00 0.00 0.00 61 1016.6
20260831224554 90 155 0.0 1.0 0.00 0.00 0.00 61 1016.6
20260831224049 90 198 1.0 4.0 0.00 0.00 0.00 60 1016.8
20260831223545 90 173 4.0 4.0 0.00 0.00 0.00 58 1016.7
20260831223041 91 236 0.0 2.0 0.00 0.00 0.00 58 1016.7
20260831222537 91 198 3.0 3.0 0.00 0.00 0.00 57 1016.8
20260831222036 91 202 2.0 3.0 0.00 0.00 0.00 57 1017.1
20260831221532 91 191 1.0 4.0 0.00 0.00 0.00 57 1017.2
20260831221027 91 213 2.0 4.0 0.00 0.00 0.00 56 1017.1
20260831220522 91 268 1.0 3.0 0.00 0.00 0.00 56 1017.2
20260831220018 92 195 1.0 2.0 0.00 0.00 0.00 55 1017.2
20260831215513 92 208 1.0 2.0 0.00 0.00 0.00 55 1017.3
20260831215009 92 178 2.0 6.0 0.00 0.00 0.00 54 1017.3
20260831214506 92 164 2.0 3.0 0.00 0.00 0.00 54 1017.5
20260831214002 93 191 1.0 2.0 0.00 0.00 0.00 53 1017.4
20260831213458 93 236 0.0 2.0 0.00 0.00 0.00 54 1017.4
20260831212958 93 264 1.0 2.0 0.00 0.00 0.00 54 1017.3
20260831212455 93 222 1.0 2.0 0.00 0.00 0.00 54 1017.6
20260831211954 93 265 0.0 1.0 0.00 0.00 0.00 53 1017.6
20260831211449 94 224 1.0 2.0 0.00 0.00 0.00 52 1017.5
20260831210948 94 31 0.0 2.0 0.00 0.00 0.00 52 1017.7
20260831210444 93 235 1.0 2.0 0.00 0.00 0.00 52 1017.7
20260831205939 94 268 1.0 3.0 0.00 0.00 0.00 52 1017.7
20260831205435 94 340 1.0 3.0 0.00 0.00 0.00 51 1017.8
20260831204931 94 285 1.0 2.0 0.00 0.00 0.00 52 1017.6
20260831204430 94 278 0.0 2.0 0.00 0.00 0.00 51 1017.7
20260831203929 94 218 0.0 2.0 0.00 0.00 0.00 51 1017.8
20260831203424 94 297 1.0 2.0 0.00 0.00 0.00 51 1017.7
20260831202922 94 340 2.0 2.0 0.00 0.00 0.00 50 1017.8
20260831202418 94 339 2.0 4.0 0.00 0.00 0.00 50 1018.1
20260831201917 94 212 0.0 2.0 0.00 0.00 0.00 50 1017.8
20260831201416 94 325 1.0 2.0 0.00 0.00 0.00 53 1017.8
20260831200912 94 215 4.0 4.0 0.00 0.00 0.00 51 1017.9
20260831200407 94 199 1.0 2.0 0.00 0.00 0.00 51 1018.1
20260831195902 93 313 2.0 3.0 0.00 0.00 0.00 53 1018.0
20260831195357 92 331 2.0 3.0 0.00 0.00 0.00 54 1018.2
20260831194853 93 233 1.0 2.0 0.00 0.00 0.00 54 1018.4
20260831194348 93 64 0.0 3.0 0.00 0.00 0.00 55 1018.4
20260831193847 92 14 1.0 3.0 0.00 0.00 0.00 55 1018.4
20260831193343 93 337 1.0 4.0 0.00 0.00 0.00 56 1018.7
20260831192838 93 287 2.0 3.0 0.00 0.00 0.00 54 1018.5
20260831192338 93 6 2.0 2.0 0.00 0.00 0.00 55 1018.6
20260831191834 94 205 2.0 3.0 0.00 0.00 0.00 51 1018.7
20260831191330 94 332 1.0 1.0 0.00 0.00 0.00 53 1018.7
20260831190825 93 301 2.0 3.0 0.00 0.00 0.00 55 1018.5
20260831190325 92 303 1.0 2.0 0.00 0.00 0.00 59 1018.9
20260831185825 91 164 2.0 3.0 0.00 0.00 0.00 60 1018.8
20260831185320 90 168 4.0 6.0 0.00 0.00 0.00 60 1018.9
20260831184819 90 209 2.0 3.0 0.00 0.00 0.00 61 1018.9
20260831184315 91 215 1.0 3.0 0.00 0.00 0.00 59 1018.8
20260831183810 91 181 1.0 7.0 0.00 0.00 0.00 58 1018.9
20260831183309 89 194 0.0 2.0 0.00 0.00 0.00 61 1018.9
20260831182809 89 203 2.0 3.0 0.00 0.00 0.00 60 1019.1
20260831182309 90 196 1.0 2.0 0.00 0.00 0.00 59 1019.0
20260831181805 91 194 1.0 4.0 0.00 0.00 0.00 58 1019.0
20260831181305 91 314 1.0 2.0 0.00 0.00 0.00 58 1018.9
20260831180800 92 299 1.0 3.0 0.00 0.00 0.00 60 1018.9
20260831180255 91 330 2.0 2.0 0.00 0.00 0.00 61 1019.2
20260831175754 90 37 1.0 2.0 0.00 0.00 0.00 61 1019.2
20260831175251 90 37 2.0 3.0 0.00 0.00 0.00 60 1019.2
20260831174746 90 216 2.0 7.0 0.00 0.00 0.00 61 1019.4
20260831174242 90 199 2.0 3.0 0.00 0.00 0.00 65 1019.4
20260831173740 90 216 3.0 3.0 0.00 0.00 0.00 64 1019.1
20260831173235 89 137 1.0 4.0 0.00 0.00 0.00 65 1019.4
20260831172730 90 340 1.0 4.0 0.00 0.00 0.00 66 1019.4
20260831172225 89 307 1.0 4.0 0.00 0.00 0.00 65 1019.4
20260831171720 89 252 0.0 4.0 0.00 0.00 0.00 65 1019.5
20260831171218 88 253 1.0 2.0 0.00 0.00 0.00 66 1019.4
20260831170714 88 289 0.0 1.0 0.00 0.00 0.00 69 1019.4
20260831170210 88 207 0.0 3.0 0.00 0.00 0.00 69 1019.4
20260831165706 88 276 2.0 3.0 0.00 0.00 0.00 69 1019.4
20260831165202 87 207 0.0 3.0 0.00 0.00 0.00 71 1019.5
20260831164658 87 189 2.0 3.0 0.00 0.00 0.00 70 1019.4
20260831164154 87 204 1.0 4.0 0.00 0.00 0.00 70 1019.6
20260831163648 88 350 1.0 2.0 0.00 0.00 0.00 70 1019.7
20260831163144 88 252 1.0 4.0 0.00 0.00 0.00 69 1019.7
20260831162643 88 178 2.0 3.0 0.00 0.00 0.00 69 1019.7
20260831162141 87 36 1.0 2.0 0.00 0.00 0.00 71 1019.7
20260831161637 87 190 1.0 1.0 0.00 0.00 0.00 71 1019.7
20260831161134 87 297 0.0 3.0 0.00 0.00 0.00 70 1019.5
20260831160633 86 294 0.0 2.0 0.00 0.00 0.00 73 1019.8
20260831160128 86 271 1.0 1.0 0.00 0.00 0.00 71 1019.6
20260831155627 87 256 1.0 2.0 0.00 0.00 0.00 71 1019.6
20260831155123 86 313 1.0 2.0 0.00 0.00 0.00 71 1019.5
20260831154620 86 93 1.0 2.0 0.00 0.00 0.00 73 1019.5
20260831154120 86 200 1.0 4.0 0.00 0.00 0.00 72 1019.7
20260831153619 86 136 1.0 2.0 0.00 0.00 0.00 72 1019.5
20260831153116 85 160 4.0 4.0 0.00 0.00 0.00 71 1019.5
20260831152611 85 248 1.0 4.0 0.00 0.00 0.00 72 1019.5
20260831152107 85 176 1.0 3.0 0.00 0.00 0.00 73 1019.5
20260831151606 84 76 0.0 3.0 0.00 0.00 0.00 75 1019.7
20260831151100 83 323 2.0 2.0 0.00 0.00 0.00 75 1019.8
20260831150555 83 194 1.0 1.0 0.00 0.00 0.00 76 1019.6
20260831150051 83 195 2.0 2.0 0.00 0.00 0.00 76 1019.6
20260831145545 83 190 0.0 1.0 0.00 0.00 0.00 76 1019.7
20260831145042 83 199 0.0 1.0 0.00 0.00 0.00 75 1019.4
20260831144537 83 174 0.0 2.0 0.00 0.00 0.00 75 1019.5
20260831144032 82 174 3.0 3.0 0.00 0.00 0.00 75 1019.5
20260831143527 82 161 0.0 2.0 0.00 0.00 0.00 76 1019.4
20260831143023 81 212 1.0 1.0 0.00 0.00 0.00 76 1019.4
20260831142519 81 172 2.0 2.0 0.00 0.00 0.00 77 1019.5
20260831142014 81 155 0.0 2.0 0.00 0.00 0.00 77 1019.5
20260831141513 81 154 0.0 2.0 0.00 0.00 0.00 77 1019.5
20260831141009 80 266 0.0 1.0 0.00 0.00 0.00 78 1019.2
20260831140508 80 196 1.0 1.0 0.00 0.00 0.00 78 1019.2
20260831140008 80 261 0.0 0.0 0.00 0.00 0.00 80 1019.2
20260831135506 80 292 0.0 1.0 0.00 0.00 0.00 79 1019.4
20260831135000 80 294 0.0 1.0 0.00 0.00 0.00 80 1019.5
20260831134457 79 272 0.0 1.0 0.00 0.00 0.00 80 1019.4
20260831133957 79 193 0.0 1.0 0.00 0.00 0.00 80 1019.4
20260831133457 78 196 0.0 0.0 0.00 0.00 0.00 84 1019.4
20260831132952 78 47 0.0 0.0 0.00 0.00 0.00 85 1019.5
20260831132448 78 49 0.0 0.0 0.00 0.00 0.00 86 1019.5
20260831131947 77 171 0.0 0.0 0.00 0.00 0.00 87 1019.4
20260831131442 77 171 0.0 0.0 0.00 0.00 0.00 87 1019.3
20260831130938 77 171 0.0 0.0 0.00 0.00 0.00 87 1019.2
20260831130434 77 171 0.0 0.0 0.00 0.00 0.00 86 1019.2
20260831125933 77 171 0.0 0.0 0.00 0.00 0.00 85 1019.0
20260831125433 77 157 0.0 1.0 0.00 0.00 0.00 85 1019.1
20260831124929 76 157 1.0 1.0 0.00 0.00 0.00 86 1019.0
20260831124424 76 157 0.0 1.0 0.00 0.00 0.00 87 1019.0
20260831123920 75 155 0.0 1.0 0.00 0.00 0.00 88 1019.1
20260831123418 74 155 0.0 0.0 0.00 0.00 0.00 90 1019.1
20260831122914 74 155 0.0 0.0 0.00 0.00 0.00 91 1019.0
20260831122409 73 155 1.0 1.0 0.00 0.00 0.00 91 1019.1
20260831121904 72 155 0.0 0.0 0.00 0.00 0.00 94 1019.0
20260831121400 72 155 0.0 0.0 0.00 0.00 0.00 94 1018.8
20260831120856 72 155 0.0 0.0 0.00 0.00 0.00 94 1018.9
20260831120355 72 155 0.0 0.0 0.00 0.00 0.00 94 1019.0
20260831115845 72 155 0.0 0.0 0.00 0.00 0.00 94 1019.0
20260831115342 72 155 0.0 0.0 0.00 0.00 0.00 94 1019.1
20260831114841 72 155 0.0 0.0 0.00 0.00 0.00 94 1018.9
20260831114340 71 155 0.0 0.0 0.00 0.00 0.00 94 1019.0
20260831113836 71 155 0.0 0.0 0.00 0.00 0.00 94 1018.8
20260831113335 71 155 0.0 0.0 0.00 0.00 0.00 94 1018.8
20260831112835 71 155 0.0 0.0 0.00 0.00 0.00 95 1018.7
20260831112330 71 155 0.0 0.0 0.00 0.00 0.00 95 1018.9
20260831111825 71 155 0.0 0.0 0.00 0.00 0.00 95 1018.6
20260831111322 71 155 0.0 0.0 0.00 0.00 0.00 95 1018.7
20260831110817 71 155 0.0 0.0 0.00 0.00 0.00 95 1018.6
20260831110312 71 155 0.0 0.0 0.00 0.00 0.00 95 1018.5
20260831105810 71 155 0.0 0.0 0.00 0.00 0.00 94 1018.6
20260831105307 71 155 0.0 0.0 0.00 0.00 0.00 94 1018.3
20260831104806 71 155 0.0 0.0 0.00 0.00 0.00 94 1018.3
20260831104303 71 155 0.0 0.0 0.00 0.00 0.00 93 1018.2
20260831103803 71 155 0.0 0.0 0.00 0.00 0.00 93 1018.3
20260831103259 71 155 0.0 0.0 0.00 0.00 0.00 93 1018.2
20260831102754 72 155 0.0 0.0 0.00 0.00 0.00 93 1018.0
20260831102253 72 155 0.0 0.0 0.00 0.00 0.00 92 1018.2
20260831101749 72 155 0.0 0.0 0.00 0.00 0.00 92 1018.4
20260831101245 72 155 0.0 0.0 0.00 0.00 0.00 92 1018.1
20260831100741 72 155 0.0 0.0 0.00 0.00 0.00 91 1017.9
20260831100236 72 155 1.0 1.0 0.00 0.00 0.00 92 1018.2
20260831095735 72 155 0.0 0.0 0.00 0.00 0.00 92 1018.2
20260831095230 72 155 0.0 0.0 0.00 0.00 0.00 92 1018.2
20260831094725 72 155 0.0 0.0 0.00 0.00 0.00 92 1018.3
20260831094221 72 155 0.0 0.0 0.00 0.00 0.00 92 1018.1
20260831093717 72 155 0.0 0.0 0.00 0.00 0.00 93 1018.2
20260831093212 72 155 0.0 0.0 0.00 0.00 0.00 93 1018.2
20260831092708 72 155 0.0 0.0 0.00 0.00 0.00 93 1018.1
20260831092204 72 155 0.0 0.0 0.00 0.00 0.00 92 1018.2
20260831091703 73 155 0.0 0.0 0.00 0.00 0.00 91 1018.2
20260831091159 73 155 0.0 0.0 0.00 0.00 0.00 91 1018.2
20260831090659 73 155 0.0 0.0 0.00 0.00 0.00 90 1018.3
20260831090155 73 155 0.0 0.0 0.00 0.00 0.00 90 1018.1
20260831085650 73 155 0.0 0.0 0.00 0.00 0.00 90 1018.2
20260831085146 73 155 0.0 0.0 0.00 0.00 0.00 89 1018.2
20260831084641 73 155 0.0 0.0 0.00 0.00 0.00 89 1018.0
20260831084138 73 155 0.0 1.0 0.00 0.00 0.00 89 1017.9
20260831083633 73 155 0.0 0.0 0.00 0.00 0.00 88 1018.1
20260831083128 73 155 0.0 0.0 0.00 0.00 0.00 88 1017.6
20260831082627 74 155 0.0 0.0 0.00 0.00 0.00 88 1017.6
20260831082122 74 155 1.0 1.0 0.00 0.00 0.00 87 1017.7
20260831081618 74 155 0.0 1.0 0.00 0.00 0.00 87 1017.4
20260831081113 73 155 1.0 1.0 0.00 0.00 0.00 88 1017.4
20260831080609 73 155 0.0 0.0 0.00 0.00 0.00 91 1017.3
20260831080104 73 155 0.0 0.0 0.00 0.00 0.00 91 1017.4
20260831075559 72 155 0.0 1.0 0.00 0.00 0.00 91 1017.3
20260831075055 72 155 0.0 1.0 0.00 0.00 0.00 91 1017.4
20260831074554 73 155 0.0 0.0 0.00 0.00 0.00 91 1017.7
20260831074054 73 155 0.0 0.0 0.00 0.00 0.00 90 1017.5
20260831073549 73 155 0.0 0.0 0.00 0.00 0.00 89 1017.5
20260831073048 73 155 0.0 0.0 0.00 0.00 0.00 89 1017.6
20260831072544 73 155 0.0 0.0 0.00 0.00 0.00 88 1017.5
20260831072041 74 154 0.0 1.0 0.00 0.00 0.00 87 1017.8
20260831071539 75 156 0.0 0.0 0.00 0.00 0.00 85 1017.7
20260831071035 75 156 0.0 2.0 0.00 0.00 0.00 82 1017.8
20260831070533 75 177 1.0 1.0 0.00 0.00 0.00 84 1017.9
20260831070029 74 172 1.0 1.0 0.00 0.00 0.00 87 1017.9
20260831065526 74 172 0.0 1.0 0.00 0.00 0.00 87 1017.7
20260831065021 75 172 1.0 1.0 0.00 0.00 0.00 87 1017.7
20260831064516 74 172 1.0 2.0 0.00 0.00 0.00 85 1018.0
20260831064012 73 172 0.0 1.0 0.00 0.00 0.00 87 1018.0
20260831063508 72 172 1.0 1.0 0.00 0.00 0.00 91 1018.2
20260831063007 72 172 0.0 1.0 0.00 0.00 0.00 93 1018.3
20260831062502 72 171 1.0 2.0 0.00 0.00 0.00 93 1018.3
20260831062001 72 171 1.0 1.0 0.00 0.00 0.00 93 1018.6
20260831061459 71 171 0.0 1.0 0.00 0.00 0.00 93 1018.7
20260831060956 71 171 0.0 0.0 0.00 0.00 0.00 93 1018.8
20260831060451 71 171 0.0 0.0 0.00 0.00 0.00 93 1018.6
20260831055950 71 171 0.0 0.0 0.00 0.00 0.00 93 1018.8
20260831055445 71 171 0.0 0.0 0.00 0.00 0.00 92 1018.6
20260831054941 71 171 0.0 0.0 0.00 0.00 0.00 92 1018.6
20260831054441 71 171 0.0 0.0 0.00 0.00 0.00 92 1018.5
20260831053941 71 171 0.0 1.0 0.00 0.00 0.00 92 1018.4
20260831053439 71 171 0.0 1.0 0.00 0.00 0.00 91 1018.6
20260831052934 71 171 0.0 0.0 0.00 0.00 0.00 91 1018.7
20260831052433 71 171 0.0 0.0 0.00 0.00 0.00 91 1018.6
20260831051931 71 171 0.0 0.0 0.00 0.00 0.00 91 1018.7
20260831051430 71 171 0.0 0.0 0.00 0.00 0.00 91 1018.7
20260831050925 71 171 0.0 0.0 0.00 0.00 0.00 91 1018.6
20260831050425 71 171 0.0 1.0 0.00 0.00 0.00 91 1018.6
20260831045923 72 171 0.0 0.0 0.00 0.00 0.00 90 1018.5
20260831045423 72 171 0.0 0.0 0.00 0.00 0.00 90 1018.6
20260831044918 72 171 0.0 0.0 0.00 0.00 0.00 89 1018.3
20260831044413 72 171 0.0 0.0 0.00 0.00 0.00 90 1018.5
20260831043909 72 171 0.0 0.0 0.00 0.00 0.00 89 1018.5
20260831043409 72 171 0.0 0.0 0.00 0.00 0.00 89 1018.3
20260831042904 72 171 0.0 0.0 0.00 0.00 0.00 89 1018.6
20260831042403 72 171 0.0 0.0 0.00 0.00 0.00 89 1018.3
20260831041858 72 171 0.0 0.0 0.00 0.00 0.00 88 1018.6
20260831041353 72 171 0.0 0.0 0.00 0.00 0.00 87 1018.6
20260831040848 72 171 0.0 0.0 0.00 0.00 0.00 87 1018.4
20260831040347 72 171 0.0 0.0 0.00 0.00 0.00 86 1018.6
20260831035846 73 171 0.0 0.0 0.00 0.00 0.00 86 1018.4
20260831035345 72 171 0.0 0.0 0.00 0.00 0.00 86 1018.5
20260831034839 73 171 0.0 0.0 0.00 0.00 0.00 87 1018.6
20260831034335 73 171 0.0 0.0 0.00 0.00 0.00 86 1018.6
20260831033830 73 171 0.0 0.0 0.00 0.00 0.00 85 1018.7
20260831033330 73 171 0.0 0.0 0.00 0.00 0.00 85 1018.6
20260831032826 73 171 0.0 0.0 0.00 0.00 0.00 85 1018.6
20260831032325 73 171 0.0 0.0 0.00 0.00 0.00 85 1018.7
20260831031821 74 171 0.0 0.0 0.00 0.00 0.00 85 1018.6
20260831031320 74 171 0.0 0.0 0.00 0.00 0.00 83 1018.8
20260831030816 74 171 0.0 1.0 0.00 0.00 0.00 84 1018.7
20260831030314 74 171 0.0 1.0 0.00 0.00 0.00 84 1018.5
20260831025813 74 171 0.0 0.0 0.00 0.00 0.00 84 1018.5
20260831025308 74 171 0.0 1.0 0.00 0.00 0.00 84 1018.6
20260831024804 74 171 1.0 1.0 0.00 0.00 0.00 84 1018.7
20260831024303 74 170 0.0 0.0 0.00 0.00 0.00 84 1018.6
20260831023802 74 170 0.0 1.0 0.00 0.00 0.00 84 1018.6
20260831023300 75 170 1.0 1.0 0.00 0.00 0.00 84 1018.4
20260831022755 75 170 0.0 1.0 0.00 0.00 0.00 83 1018.5
20260831022254 75 170 0.0 0.0 0.00 0.00 0.00 84 1018.8
20260831021750 75 170 0.0 0.0 0.00 0.00 0.00 84 1018.5
20260831021249 75 170 0.0 0.0 0.00 0.00 0.00 83 1018.6
20260831020746 75 170 0.0 1.0 0.00 0.00 0.00 83 1018.5
20260831020244 75 170 0.0 0.0 0.00 0.00 0.00 83 1018.5
20260831015741 75 170 0.0 0.0 0.00 0.00 0.00 83 1018.6
20260831015236 75 170 0.0 0.0 0.00 0.00 0.00 83 1018.4
20260831014731 75 170 0.0 0.0 0.00 0.00 0.00 83 1018.5
20260831014231 75 170 0.0 1.0 0.00 0.00 0.00 83 1018.4
20260831013728 75 170 0.0 0.0 0.00 0.00 0.00 83 1018.5
20260831013226 75 170 0.0 0.0 0.00 0.00 0.00 83 1018.5
20260831012722 75 170 0.0 0.0 0.00 0.00 0.00 83 1018.4
20260831012217 75 170 0.0 0.0 0.00 0.00 0.00 82 1018.4
20260831011716 76 170 0.0 0.0 0.00 0.00 0.00 81 1018.1
20260831011212 76 170 0.0 0.0 0.00 0.00 0.00 81 1018.4
20260831010708 76 170 0.0 0.0 0.00 0.00 0.00 82 1018.3
20260831010203 76 170 0.0 0.0 0.00 0.00 0.00 81 1018.3
20260831005702 77 170 0.0 0.0 0.00 0.00 0.00 80 1018.4
20260831005158 77 170 0.0 0.0 0.00 0.00 0.00 80 1018.4
20260831004653 77 170 0.0 0.0 0.00 0.00 0.00 79 1018.2
20260831004149 77 170 0.0 0.0 0.00 0.00 0.00 78 1017.8
20260831003645 77 170 0.0 1.0 0.00 0.00 0.00 78 1017.9
20260831003141 77 170 0.0 1.0 0.00 0.00 0.00 77 1018.0
20260831002639 78 170 1.0 1.0 0.00 0.00 0.00 76 1017.9
20260831002135 78 170 0.0 0.0 0.00 0.00 0.00 75 1018.0
20260831001630 78 170 0.0 0.0 0.00 0.00 0.00 75 1017.9
20260831001126 78 170 0.0 0.0 0.00 0.00 0.00 75 1018.0
20260831000623 78 170 0.0 0.0 0.00 0.00 0.00 76 1017.9
20260831000122 79 170 0.0 0.0 0.00 0.00 0.00 74 1018.0
20260830235621 79 170 0.0 0.0 0.00 0.00 0.00 74 1018.0
20260830235116 79 170 0.0 0.0 0.00 0.00 0.00 74 1018.0
20260830234611 80 170 0.0 0.0 0.00 0.00 0.00 72 1018.0